Tracking 29892 objects as of 21-Nov-2024
HD Live streaming from Space Station
objects crossing your sky now

BLOCK DM-SL R/B

Track BLOCK DM-SL R/B now!
10-day predictions


NORAD ID: 28645
Int'l Code: 2005-015B
Perigee: 224.4 km
Apogee: 25,803.2 km
Inclination: 0.3 °
Period: 447.7 minutes
Semi major axis: 19384 km
RCS: 21.8513 m2 (large)
Launch date: April 26, 2005
Source: Sea Launch (SEAL)
Launch site: SEA LAUNCH (SEAL)

Note: This is a ROCKET BODY
Your satellite tracking list
Your tracking list is empty




NASA's NSSDC Master Catalog

Two Line Element Set (TLE):
1 28645U 05015B   24325.29966172  .00025435  00000-0  19638-2 0  9992
2 28645   0.3009 300.1147 6597665 121.5789 348.8291  3.21670910199049
Source of the keplerian elements: AFSPC